This demonstration page uses our WeatherBlox Daily Observations layout. Learn more.

Left ArrowRight Arrow

Hourly Observations for January 30, 2020

Temp ( °F °C ) Dew Point ( °F °C ) Humidity (%) Winds ( mph kmh ) Pressure ( in mb ) Visibility ( mi km ) Precip ( " mm )
12:19 am 00:19 Cloudy 33 0.6 31 -0.6 92 92 S 8 13 30.16 1021 9 14 0.00 0.00
12:32 am 00:32 Cloudy 34 1 30 -1 87 87 S 7 11 30.15 1021 9 14 0.00 0.00
12:53 am 00:53 Cloudy 33 0.6 31 -0.6 92 92 S 10 17 30.11 1020 9 14 0.00 0.00
1:37 am 01:37 Cloudy with Mist and Fog 33 0.6 31 -0.6 92 92 S 9 15 30.14 1021 6 10 0.00 0.00
1:53 am 01:53 Cloudy with Mist and Fog 32 0 31 -0.6 96 96 S 10 17 30.09 1019 4 6 0.00 0.00
2:11 am 02:11 Cloudy with Mist and Fog 32 0 31 -0.6 96 96 S 8 13 30.15 1021 2 3 0.00 0.00
2:22 am 02:22 Cloudy with Mist and Fog 32 0 30 -1 93 93 S 7 11 30.15 1021 2 2 0.00 0.00
2:53 am 02:53 Cloudy with Mist and Fog 32 0 31 -0.6 96 96 S 10 17 30.09 1019 1 2 0.00 0.00
3:31 am 03:31 Cloudy with Mist and Fog 32 0 31 -0.6 96 96 S 9 15 30.13 1020 3 4 0.00 0.00
3:51 am 03:51 Cloudy with Mist and Fog 32 0 30 -1 93 93 S 7 11 30.13 1020 4 6 0.00 0.00
3:53 am 03:53 Cloudy with Mist and Fog 32 0 31 -0.6 96 96 S 9 15 30.08 1019 5 8 0.00 0.00
4:36 am 04:36 Cloudy with Mist and Fog 32 0 30 -1 93 93 S 9 15 30.11 1019 3 4 0.00 0.00
4:53 am 04:53 Cloudy with Mist and Fog 32 0 31 -0.6 96 96 S 9 15 30.06 1018 4 6 0.00 0.00
5:53 am 05:53 Cloudy 31 -0.6 30 -1.1 96 96 SSW 12 19 30.05 1018 7 11 0.00 0.00
6:34 am 06:34 Cloudy with Mist and Fog 31 -0.6 30 -1.1 96 96 S 10 17 30.08 1019 2 3 0.00 0.00
6:45 am 06:45 Cloudy with Mist and Fog 31 -0.6 30 -1.1 96 96 S 12 19 30.08 1019 2 2 0.00 0.00
6:53 am 06:53 Cloudy with Mist and Fog 31 -0.6 30 -1.1 96 96 S 12 19 30.04 1017 2 2 0.00 0.00
7:11 am 07:11 Cloudy with Mist and Fog 31 -0.6 30 -1.1 96 96 SSW 10 17 30.09 1019 2 3 0.00 0.00
7:53 am 07:53 Cloudy with Mist and Fog 31 -0.6 30 -1.1 96 96 SSW 9 15 30.05 1018 2 3 0.00 0.00
8:02 am 08:02 Cloudy with Mist and Fog 31 -0.6 30 -1.1 96 96 SSW 10 17 30.09 1019 2 3 0.00 0.00
8:35 am 08:35 Cloudy with Mist and Fog 31 -0.6 30 -1.1 96 96 SSW 10 17 30.09 1019 3 4 0.00 0.00
8:51 am 08:51 Cloudy with Mist and Fog 30 -1 30 -1 100 100 SSW 10 17 30.09 1019 2 2 0.00 0.00
8:53 am 08:53 Cloudy with Mist and Fog 31 -0.6 30 -1.1 96 96 SSW 8 13 30.05 1018 2 3 0.00 0.00
9:29 am 09:29 Cloudy with Mist and Fog 31 -0.6 30 -1.1 96 96 SSW 10 17 30.08 1019 3 4 0.00 0.00
9:39 am 09:39 Cloudy with Mist and Fog 32 0 31 -0.6 96 96 SSW 9 15 30.08 1018 4 6 0.00 0.00
9:53 am 09:53 Cloudy with Mist and Fog 32 0 31 -0.6 96 96 SW 8 13 30.05 1018 5 8 0.00 0.00
10:53 am 10:53 Cloudy 32 0 31 -0.6 96 96 SSW 7 11 30.05 1018 7 11 0.00 0.00
11:53 am 11:53 Cloudy 34 1.1 31 -0.6 89 89 S 9 15 30.03 1017 8 13 0.00 0.00
12:53 pm 12:53 Cloudy 34 1.1 31 -0.6 89 89 SSW 7 11 30.01 1016 9 14 0.00 0.00
1:06 pm 13:06 Cloudy 35 1.7 32 0 89 89 S 7 11 30.03 1017 9 14 0.00 0.00
1:53 pm 13:53 Cloudy 36 2.2 33 0.6 89 89 SSW 8 13 29.99 1016 10 16 0.00 0.00
2:53 pm 14:53 Cloudy 37 2.8 34 1.1 89 89 S 7 11 29.98 1015 10 16 0.00 0.00
3:39 pm 15:39 Cloudy 39 3.9 35 1.7 86 86 SSE 7 11 29.98 1015 10 16 0.00 0.00
3:50 pm 15:50 Mostly Cloudy 39 4 34 1 81 81 SSE 12 19 29.98 1015 10 16 0.00 0.00
3:53 pm 15:53 Mostly Cloudy 39 3.9 34 1.1 82 82 SSE 12 19 29.97 1015 10 16 0.00 0.00
4:53 pm 16:53 Partly Cloudy 39 3.9 34 1.1 82 82 SSE 9 15 29.97 1015 10 16 0.00 0.00
5:53 pm 17:53 Partly Cloudy 36 2.2 33 0.6 89 89 SSE 9 15 29.99 1016 9 14 0.00 0.00
6:53 pm 18:53 Partly Cloudy 35 1.7 32 0 89 89 SSE 8 13 30.00 1016 10 16 0.00 0.00
7:53 pm 19:53 Cloudy 34 1.1 32 0 92 92 SSE 9 15 30.00 1016 8 13 0.00 0.00
8:53 pm 20:53 Mostly Clear 34 1.1 32 0 92 92 S 7 11 30.00 1016 8 13 0.00 0.00
9:53 pm 21:53 Clear 33 0.6 32 0 96 96 SSW 3 6 30.01 1016 7 11 0.00 0.00
10:53 pm 22:53 Clear 32 0 30 -1.1 92 92 W 6 9 30.02 1017 7 11 0.00 0.00
11:53 pm 23:53 Clear 35 1.7 31 -0.6 85 85 NW 10 17 30.00 1016 10 16 0.00 0.00

Powered by AerisWeather